AEE358 LGAV-LGSR

Flight info

Callsign AEE358
Flight time 0h 30m
Altitude 17000
Route BIBEX DCT TUXEM DCT MIL40
Aircraft A320/M-SDE3FGHIRWY/LB1

Departure

Time 2026-04-26 14:01
Airport Athens Eleftherios Venizelos International Airport (LGAV)

Arrival

Time 2026-04-26 14:32
Airport Santorini International Airport (LGSR)
Time Latitude Longitude Altitude Speed Heading
2026-04-26 13:26 37.94088 23.95415 300 ft 0 kts 218°
2026-04-26 13:27 37.94090 23.95416 300 ft 0 kts 217°
2026-04-26 13:48 37.94098 23.95424 300 ft 4 kts 217°
2026-04-26 13:48 37.94119 23.95445 301 ft 4 kts 217°
2026-04-26 13:49 37.94136 23.95461 301 ft 4 kts 219°
2026-04-26 13:49 37.94155 23.95485 302 ft 4 kts 242°
2026-04-26 13:49 37.94159 23.95511 301 ft 3 kts 304°
2026-04-26 13:49 37.94157 23.95515 301 ft 0 kts 307°
2026-04-26 13:51 37.94159 23.95512 301 ft 1 kts 307°
2026-04-26 13:52 37.94168 23.95497 301 ft 3 kts 307°
2026-04-26 13:52 37.94184 23.95470 300 ft 5 kts 307°
2026-04-26 13:52 37.94207 23.95431 300 ft 6 kts 307°
2026-04-26 13:52 37.94237 23.95380 301 ft 8 kts 307°
2026-04-26 13:53 37.94276 23.95314 303 ft 10 kts 307°
2026-04-26 13:53 37.94324 23.95233 301 ft 12 kts 307°
2026-04-26 13:53 37.94380 23.95138 301 ft 14 kts 307°
2026-04-26 13:53 37.94445 23.95031 302 ft 17 kts 307°
2026-04-26 13:54 37.94519 23.94905 302 ft 19 kts 306°
2026-04-26 13:54 37.94591 23.94782 303 ft 15 kts 307°
2026-04-26 13:54 37.94635 23.94693 301 ft 11 kts 276°
2026-04-26 13:55 37.94499 23.94543 301 ft 16 kts 217°
2026-04-26 13:55 37.94437 23.94484 304 ft 17 kts 217°
2026-04-26 13:55 37.94178 23.94240 302 ft 23 kts 217°
2026-04-26 13:56 37.94044 23.94113 303 ft 25 kts 216°
2026-04-26 13:56 37.93897 23.93975 302 ft 27 kts 217°
2026-04-26 13:56 37.93739 23.93823 303 ft 30 kts 217°
2026-04-26 13:56 37.93571 23.93664 302 ft 30 kts 217°
2026-04-26 13:57 37.93413 23.93512 303 ft 27 kts 217°
2026-04-26 13:57 37.93258 23.93365 301 ft 29 kts 216°
2026-04-26 13:57 37.93102 23.93219 301 ft 28 kts 217°
2026-04-26 13:57 37.92941 23.93064 300 ft 28 kts 216°
2026-04-26 13:58 37.92787 23.92918 302 ft 29 kts 217°
2026-04-26 13:58 37.92623 23.92763 304 ft 30 kts 217°
2026-04-26 13:58 37.92449 23.92598 302 ft 32 kts 217°
2026-04-26 13:58 37.92285 23.92442 303 ft 26 kts 217°
2026-04-26 13:59 37.92144 23.92308 302 ft 25 kts 217°
2026-04-26 13:59 37.92012 23.92182 303 ft 18 kts 218°
2026-04-26 13:59 37.91992 23.92036 303 ft 18 kts 299°
2026-04-26 14:00 37.92188 23.91929 304 ft 5 kts 19°
2026-04-26 14:00 37.92197 23.91938 305 ft 0 kts 37°
2026-04-26 14:00 37.92212 23.91953 304 ft 13 kts 37°
2026-04-26 14:01 37.92672 23.92390 301 ft 105 kts 37°
2026-04-26 14:01 37.93404 23.93083 293 ft 155 kts 36°
2026-04-26 14:01 37.94305 23.93926 747 ft 162 kts 37°
2026-04-26 14:01 37.95220 23.94762 1375 ft 162 kts 37°
2026-04-26 14:02 37.96131 23.95591 2047 ft 161 kts 35°
2026-04-26 14:02 37.97037 23.96418 2677 ft 160 kts 35°
2026-04-26 14:02 37.97940 23.97247 3251 ft 161 kts 33°
2026-04-26 14:02 37.98859 23.98091 3663 ft 170 kts 33°
2026-04-26 14:03 37.99884 23.99027 3903 ft 193 kts 34°
2026-04-26 14:03 38.01038 24.00080 4163 ft 217 kts 33°
2026-04-26 14:03 38.02248 24.01393 4484 ft 244 kts 51°
2026-04-26 14:03 38.02888 24.03485 4873 ft 271 kts 87°
2026-04-26 14:04 38.02429 24.05832 5553 ft 283 kts 123°
2026-04-26 14:04 38.01097 24.07676 6405 ft 286 kts 141°
2026-04-26 14:04 37.99536 24.09251 7279 ft 288 kts 145°
2026-04-26 14:04 37.97908 24.10752 8141 ft 291 kts 146°
2026-04-26 14:05 37.96244 24.12235 8995 ft 294 kts 147°
2026-04-26 14:05 37.94553 24.13723 9833 ft 298 kts 147°
2026-04-26 14:05 37.92826 24.15242 10380 ft 312 kts 147°
2026-04-26 14:05 37.90979 24.16868 10587 ft 335 kts 146°
2026-04-26 14:06 37.89010 24.18610 10856 ft 354 kts 146°
2026-04-26 14:06 37.86974 24.20419 11447 ft 361 kts 145°
2026-04-26 14:06 37.84908 24.22258 12106 ft 366 kts 144°
2026-04-26 14:06 37.83524 24.23487 12545 ft 369 kts 144°
2026-04-26 14:07 37.81409 24.25363 13206 ft 374 kts 144°
2026-04-26 14:07 37.79269 24.27265 13859 ft 378 kts 143°
2026-04-26 14:07 37.77105 24.29186 14446 ft 382 kts 144°
2026-04-26 14:07 37.74917 24.31123 15043 ft 386 kts 143°
2026-04-26 14:08 37.71989 24.33711 15827 ft 390 kts 143°
2026-04-26 14:08 37.70484 24.35042 16232 ft 392 kts 143°
2026-04-26 14:08 37.68238 24.37024 16788 ft 396 kts 143°
2026-04-26 14:08 37.65974 24.39019 16995 ft 397 kts 143°
2026-04-26 14:09 37.63663 24.41057 17039 ft 415 kts 143°
2026-04-26 14:09 37.61252 24.43185 17027 ft 428 kts 143°
2026-04-26 14:09 37.58800 24.45344 17029 ft 431 kts 143°
2026-04-26 14:09 37.56337 24.47506 17029 ft 432 kts 143°
2026-04-26 14:10 37.53870 24.49668 17031 ft 432 kts 143°
2026-04-26 14:10 37.51401 24.51832 17030 ft 432 kts 143°
2026-04-26 14:10 37.48935 24.53998 17026 ft 432 kts 143°
2026-04-26 14:10 37.46469 24.56162 17021 ft 432 kts 143°
2026-04-26 14:11 37.41534 24.60483 17022 ft 432 kts 143°
2026-04-26 14:11 37.39067 24.62639 17030 ft 432 kts 143°
2026-04-26 14:11 37.36595 24.64795 17019 ft 432 kts 143°
2026-04-26 14:12 37.34126 24.66949 17023 ft 432 kts 143°
2026-04-26 14:12 37.31654 24.69102 17021 ft 432 kts 143°
2026-04-26 14:12 37.29216 24.71222 17028 ft 432 kts 143°
2026-04-26 14:12 37.26749 24.73370 17027 ft 432 kts 143°
2026-04-26 14:13 37.21808 24.77676 17037 ft 432 kts 143°
2026-04-26 14:13 37.19339 24.79822 17032 ft 432 kts 143°
2026-04-26 14:13 37.16868 24.81964 17034 ft 432 kts 143°
2026-04-26 14:14 37.14399 24.84104 17032 ft 432 kts 143°
2026-04-26 14:14 37.11929 24.86245 17022 ft 432 kts 143°
2026-04-26 14:14 37.09453 24.88387 17019 ft 432 kts 143°
2026-04-26 14:14 37.06983 24.90521 17025 ft 432 kts 143°
2026-04-26 14:15 37.04510 24.92657 17010 ft 432 kts 143°
2026-04-26 14:15 37.02041 24.94789 17013 ft 432 kts 143°
2026-04-26 14:15 36.99571 24.96924 17016 ft 431 kts 143°
2026-04-26 14:15 36.97102 24.99059 17011 ft 431 kts 143°
2026-04-26 14:16 36.94630 25.01186 17017 ft 431 kts 143°
2026-04-26 14:16 36.92158 25.03307 17017 ft 431 kts 143°
2026-04-26 14:16 36.89687 25.05430 17016 ft 431 kts 143°
2026-04-26 14:16 36.87221 25.07552 17016 ft 431 kts 143°
2026-04-26 14:17 36.84751 25.09675 17016 ft 431 kts 143°
2026-04-26 14:17 36.82283 25.11792 17015 ft 431 kts 143°
2026-04-26 14:17 36.79816 25.13911 17017 ft 431 kts 143°
2026-04-26 14:17 36.77382 25.15999 16783 ft 418 kts 143°
2026-04-26 14:18 36.75017 25.18021 16527 ft 406 kts 143°
2026-04-26 14:18 36.72706 25.19994 16025 ft 400 kts 143°
2026-04-26 14:18 36.70415 25.21950 15428 ft 398 kts 143°
2026-04-26 14:18 36.68139 25.23894 14833 ft 396 kts 144°
2026-04-26 14:19 36.65877 25.25828 14233 ft 393 kts 144°
2026-04-26 14:19 36.63630 25.27750 13605 ft 391 kts 144°
2026-04-26 14:19 36.61394 25.29658 12979 ft 387 kts 144°
2026-04-26 14:19 36.59185 25.31540 12386 ft 382 kts 144°
2026-04-26 14:20 36.57004 25.33398 11799 ft 378 kts 144°
2026-04-26 14:20 36.54845 25.35236 11196 ft 374 kts 144°
2026-04-26 14:20 36.52708 25.37053 10666 ft 369 kts 144°
2026-04-26 14:20 36.50637 25.38806 10530 ft 352 kts 143°
2026-04-26 14:21 36.48656 25.40479 10405 ft 337 kts 143°
2026-04-26 14:21 36.46756 25.42085 10285 ft 324 kts 143°
2026-04-26 14:21 36.44923 25.43635 10165 ft 313 kts 144°
2026-04-26 14:21 36.43151 25.45137 10045 ft 303 kts 144°
2026-04-26 14:22 36.41435 25.46593 9881 ft 295 kts 143°
2026-04-26 14:22 36.39817 25.48125 9440 ft 289 kts 133°
2026-04-26 14:22 36.38556 25.50041 8760 ft 286 kts 120°
2026-04-26 14:22 36.37508 25.52134 8078 ft 285 kts 119°
2026-04-26 14:23 36.36456 25.54218 7421 ft 284 kts 120°
2026-04-26 14:23 36.35404 25.56287 6798 ft 283 kts 120°
2026-04-26 14:23 36.34350 25.58349 6260 ft 279 kts 120°
2026-04-26 14:23 36.33335 25.60323 6030 ft 264 kts 120°
2026-04-26 14:24 36.32369 25.62202 5933 ft 254 kts 120°
2026-04-26 14:24 36.31445 25.64006 5868 ft 242 kts 119°
2026-04-26 14:24 36.30375 25.65530 5808 ft 232 kts 147°
2026-04-26 14:24 36.28890 25.66129 5763 ft 221 kts 176°
2026-04-26 14:25 36.27387 25.65902 5708 ft 218 kts 200°
2026-04-26 14:25 36.26087 25.64977 5660 ft 216 kts 225°
2026-04-26 14:25 36.25202 25.63502 5601 ft 213 kts 250°
2026-04-26 14:25 36.24868 25.61736 5561 ft 210 kts 273°
2026-04-26 14:26 36.25120 25.59990 5515 ft 206 kts 297°
2026-04-26 14:26 36.25890 25.58536 5474 ft 200 kts 319°
2026-04-26 14:26 36.27010 25.57549 5428 ft 198 kts 332°
2026-04-26 14:26 36.28194 25.56674 5385 ft 198 kts 331°
2026-04-26 14:27 36.29369 25.55795 5247 ft 194 kts 331°
2026-04-26 14:27 36.30510 25.54943 4995 ft 190 kts 330°
2026-04-26 14:27 36.31630 25.54107 4749 ft 186 kts 331°
2026-04-26 14:27 36.32721 25.53292 4501 ft 179 kts 330°
2026-04-26 14:28 36.33776 25.52581 4257 ft 167 kts 346°
2026-04-26 14:28 36.34855 25.52710 4027 ft 155 kts 31°
2026-04-26 14:28 36.35456 25.53752 3800 ft 150 kts 77°
2026-04-26 14:28 36.35191 25.54977 3581 ft 155 kts 128°
2026-04-26 14:29 36.34233 25.55537 3440 ft 160 kts 180°
2026-04-26 14:29 36.33247 25.55041 3243 ft 154 kts 233°
2026-04-26 14:29 36.32925 25.53885 3015 ft 144 kts 283°
2026-04-26 14:29 36.33383 25.52870 2641 ft 134 kts 321°
2026-04-26 14:30 36.34106 25.52155 2249 ft 132 kts 328°
2026-04-26 14:30 36.34873 25.51541 1878 ft 130 kts 333°
2026-04-26 14:30 36.35664 25.50986 1465 ft 132 kts 334°
2026-04-26 14:30 36.36458 25.50416 1079 ft 130 kts 326°
2026-04-26 14:31 36.37167 25.49718 794 ft 130 kts 322°
2026-04-26 14:31 36.37866 25.49016 427 ft 129 kts 326°
2026-04-26 14:31 36.38664 25.48501 138 ft 129 kts 341°
2026-04-26 14:31 36.39479 25.48128 70 ft 112 kts 340°
2026-04-26 14:32 36.39986 25.47884 85 ft 36 kts 339°
2026-04-26 14:32 36.40150 25.47807 88 ft 23 kts 340°
2026-04-26 14:32 36.40299 25.47736 92 ft 23 kts 339°
2026-04-26 14:32 36.40433 25.47673 89 ft 14 kts 340°
2026-04-26 14:33 36.40464 25.47598 90 ft 12 kts 250°
2026-04-26 14:33 36.40430 25.47497 92 ft 14 kts 247°
2026-04-26 14:33 36.40417 25.47426 90 ft 8 kts 291°
2026-04-26 14:33 36.40427 25.47365 90 ft 7 kts 249°
2026-04-26 14:34 36.40424 25.47357 93 ft 1 kts 241°
2026-04-26 14:34 36.40421 25.47348 93 ft 1 kts 248°
2026-04-26 14:34 36.40420 25.47343 93 ft 0 kts 248°